Location: Chuathbaluk
(61.5726°N, 159.2454°W)
Time: 17:36:51
(UTC+00:00)

ZACube-1 - Pass Details

Date: 26 January 2021
Orbit: 583 x 666 km, 97.6° (Epoch: 04 March)

Event Time Altitude Azimuth Distance (km) Brightness Sun altitude
Rises 15:06:21 0° 19° (NNE) 3,024 ? -28.4°
Reaches altitude 10° 15:08:50 10° 30° (NNE) 2,103 ? -28.2°
Maximum altitude 15:12:55 31° 92° (E) 1,171 ? -27.7°
Drops below altitude 10° 15:16:56 10° 155° (SSE) 2,062 ? -27.2°
Sets 15:19:20 0° 166° (SSE) 2,957 ? -26.9°
